| time (UTC) | temp F | wind direction | speed knots | gust knots | rain 1hr in | rain 24hr in | rain mn in | humidity % | barometer mb |
| 20260502163305 | 75 | 80 | 6.1 | 0.0 | 0.00 | 0.00 | 0.00 | 16 | 1019.0 |
| 20260502160246 | 75 | 70 | 5.2 | 0.0 | 0.00 | 0.00 | 0.00 | 16 | 1019.0 |
| 20260502150306 | 75 | 0 | 2.6 | 0.0 | 0.00 | 0.00 | 0.00 | 16 | 1020.0 |
| 20260502130253 | 75 | 0 | 4.3 | 0.0 | 0.00 | 0.00 | 0.00 | 19 | 1021.0 |
| 20260502123304 | 73 | 0 | 2.6 | 0.0 | 0.00 | 0.00 | 0.00 | 20 | 1022.0 |
| 20260502120246 | 73 | 0 | 4.3 | 0.0 | 0.00 | 0.00 | 0.00 | 21 | 1022.0 |
| 20260502113238 | 72 | 20 | 2.6 | 0.0 | 0.00 | 0.00 | 0.00 | 23 | 1023.0 |
| 20260502110254 | 72 | 0 | 4.3 | 0.0 | 0.00 | 0.00 | 0.00 | 21 | 1023.0 |
| 20260502103238 | 70 | 60 | 5.2 | 0.0 | 0.00 | 0.00 | 0.00 | 28 | 1023.0 |
| 20260502100315 | 68 | 140 | 5.2 | 0.0 | 0.00 | 0.00 | 0.00 | 26 | 1024.0 |
| 20260502090315 | 66 | 0 | 4.3 | 0.0 | 0.00 | 0.00 | 0.00 | 37 | 1024.0 |
| 20260502070249 | 54 | 0 | 0.9 | 0.0 | 0.00 | 0.00 | 0.00 | 58 | 1025.0 |
| 20260502063305 | 50 | 0 | 1.7 | 0.0 | 0.00 | 0.00 | 0.00 | 66 | 1025.0 |
| 20260502060305 | 46 | 0 | 0.0 | 0.0 | 0.00 | 0.00 | 0.00 | 70 | 1025.0 |
| 20260502053231 | 43 | 180 | 1.7 | 0.0 | 0.00 | 0.00 | 0.00 | 81 | 1025.0 |
| 20260502050239 | 41 | 0 | 0.9 | 0.0 | 0.00 | 0.00 | 0.00 | 80 | 1025.0 |
| 20260502043305 | 37 | 0 | 1.7 | 0.0 | 0.00 | 0.00 | 0.00 | 86 | 1025.0 |
| 20260502040306 | 37 | 220 | 2.6 | 0.0 | 0.00 | 0.00 | 0.00 | 86 | 1025.0 |
| 20260502033305 | 37 | 210 | 1.7 | 0.0 | 0.00 | 0.00 | 0.00 | 86 | 1025.0 |
| 20260502030307 | 37 | 230 | 1.7 | 0.0 | 0.00 | 0.00 | 0.00 | 86 | 1025.0 |
| 20260502023230 | 39 | 200 | 4.3 | 0.0 | 0.00 | 0.00 | 0.00 | 80 | 1025.0 |
| 20260502020306 | 39 | 200 | 1.7 | 0.0 | 0.00 | 0.00 | 0.00 | 86 | 1026.0 |
| 20260502013305 | 41 | 210 | 1.7 | 0.0 | 0.00 | 0.00 | 0.00 | 80 | 1026.0 |
| 20260502010247 | 41 | 220 | 2.6 | 0.0 | 0.00 | 0.00 | 0.00 | 80 | 1026.0 |
| 20260502003304 | 41 | 240 | 2.6 | 0.0 | 0.00 | 0.00 | 0.00 | 80 | 1026.0 |
| 20260502000306 | 43 | 0 | 1.7 | 0.0 | 0.00 | 0.00 | 0.00 | 75 | 1026.0 |
| 20260501233231 | 45 | 210 | 2.6 | 0.0 | 0.00 | 0.00 | 0.00 | 70 | 1026.0 |
| 20260501230305 | 45 | 210 | 2.6 | 0.0 | 0.00 | 0.00 | 0.00 | 70 | 1026.0 |
| 20260501223305 | 45 | 210 | 2.6 | 0.0 | 0.00 | 0.00 | 0.00 | 70 | 1026.0 |
| 20260501220306 | 45 | 220 | 2.6 | 0.0 | 0.00 | 0.00 | 0.00 | 70 | 1026.0 |
| 20260501213231 | 46 | 220 | 2.6 | 0.0 | 0.00 | 0.00 | 0.00 | 70 | 1026.0 |
| 20260501210306 | 46 | 210 | 4.3 | 0.0 | 0.00 | 0.00 | 0.00 | 65 | 1026.0 |
| 20260501203305 | 48 | 220 | 4.3 | 0.0 | 0.00 | 0.00 | 0.00 | 66 | 1026.0 |
| 20260501200247 | 50 | 240 | 2.6 | 0.0 | 0.00 | 0.00 | 0.00 | 57 | 1026.0 |
| 20260501193231 | 50 | 250 | 4.3 | 0.0 | 0.00 | 0.00 | 0.00 | 61 | 1026.0 |
| 20260501190247 | 54 | 0 | 1.7 | 0.0 | 0.00 | 0.00 | 0.00 | 54 | 1026.0 |
| 20260501183305 | 57 | 0 | 1.7 | 0.0 | 0.00 | 0.00 | 0.00 | 47 | 1026.0 |
| 20260501180306 | 64 | 300 | 2.6 | 0.0 | 0.00 | 0.00 | 0.00 | 36 | 1026.0 |
| 20260501173237 | 63 | 260 | 6.1 | 0.0 | 0.00 | 0.00 | 0.00 | 42 | 1025.0 |
| 20260501170234 | 66 | 290 | 5.2 | 0.0 | 0.00 | 0.00 | 0.00 | 34 | 1026.0 |